Fort Myers, FL

2:47 PM EDT on May 20, 2018 (GMT -0400)
Page

Weather History for KFMY - April, 2014

Change the Weather History Date:

Wednesday, April 9, 2014

  Actual Average Record
Temperature  
Mean Temperature 69 °F 73 °F  
Max Temperature 76 °F 84 °F 92 °F (1948)
Min Temperature 62 °F 62 °F 46 °F (1971)
Degree Days  
Heating Degree Days 0 0  
Month to date heating degree days 0 0  
Since 1 July heating degree days 178 284  
Cooling Degree Days 4 8  
Month to date cooling degree days 79 68  
Year to date cooling degree days 501 429  
Growing Degree Days 20 (Base 50)    
Moisture  
Dew Point 52 °F    
Average Humidity 55    
Maximum Humidity 73    
Minimum Humidity 36    
Precipitation  
Precipitation 0.00 in 0.07 in 2.60 in (1916)
Month to date precipitation 0.68 0.71  
Year to date precipitation 7.31 7.68  
Sea Level Pressure  
Sea Level Pressure 30.04 in    
Wind  
Wind Speed 13 mph (NW)    
Max Wind Speed 24 mph    
Max Gust Speed 32 mph    
Visibility 10 miles    
Events      
T = Trace of Precipitation, MM = Missing Value Source: NWS Daily Summary

Daily Weather History Graph

Daily Weather History Graph

Search for Another Location

Airport or City:

Astronomy

Apr. 09, 2014 Rise Set
Actual Time 7:09 AM EDT 7:48 PM EDT
Civil Twilight 6:46 AM EDT 8:11 PM EDT
Nautical Twilight 6:18 AM EDT 8:39 PM EDT
Astronomical Twilight 5:50 AM EDT 9:07 PM EDT
Moon 3:02 PM EDT (4/9) 3:29 AM EDT (4/9)
Length of Visible Light 13h 25m
Length of Day
12h 38m
Waxing Gibbous, 71% of the Moon is Illuminated
Apr 9
Waxing Gibbous
Apr 15
Full
Apr 22
Last Quarter
Apr 29
New
May 6
First Quarter

Hourly Weather History & Observations

Time (EDT) Temp. Dew Point Humidity Pressure Visibility Wind Dir Wind Speed Gust Speed Precip Events Conditions
12:53 AM 69.1 °F 55.9 °F 63% 29.93 in 10.0 mi West 13.8 mph - N/A   Mostly Cloudy
1:53 AM 70.0 °F 55.9 °F 61% 29.92 in 10.0 mi WNW 13.8 mph - N/A   Overcast
2:53 AM 70.0 °F 51.1 °F 51% 29.92 in 10.0 mi WNW 16.1 mph 29.9 mph N/A   Overcast
3:53 AM 68.0 °F 51.1 °F 55% 29.92 in 10.0 mi WNW 15.0 mph - N/A   Clear
4:53 AM 68.0 °F 52.0 °F 56% 29.93 in 10.0 mi WNW 12.7 mph - N/A   Partly Cloudy
5:53 AM 66.0 °F 55.9 °F 70% 29.94 in 10.0 mi NW 8.1 mph - N/A   Clear
6:53 AM 66.0 °F 52.0 °F 60% 29.97 in 10.0 mi WNW 11.5 mph - N/A   Clear
7:53 AM 68.0 °F 52.0 °F 56% 30.00 in 10.0 mi WNW 13.8 mph 25.3 mph N/A   Mostly Cloudy
8:53 AM 69.1 °F 51.1 °F 53% 30.02 in 10.0 mi WNW 13.8 mph 21.9 mph N/A   Partly Cloudy
9:53 AM 70.0 °F 51.1 °F 51% 30.05 in 10.0 mi NW 18.4 mph 29.9 mph N/A   Mostly Cloudy
10:53 AM 71.1 °F 51.1 °F 49% 30.07 in 10.0 mi NW 20.7 mph 26.5 mph N/A   Scattered Clouds
11:53 AM 72.0 °F 53.1 °F 51% 30.08 in 10.0 mi WNW 17.3 mph - N/A   Scattered Clouds
12:53 PM 73.0 °F 52.0 °F 48% 30.08 in 10.0 mi NW 15.0 mph 27.6 mph N/A   Scattered Clouds
1:53 PM 75.0 °F 48.0 °F 38% 30.07 in 10.0 mi NW 20.7 mph 25.3 mph N/A   Partly Cloudy
2:53 PM 75.0 °F 46.9 °F 37% 30.06 in 10.0 mi NNW 19.6 mph 27.6 mph N/A   Partly Cloudy
3:53 PM 73.9 °F 48.0 °F 40% 30.05 in 10.0 mi NW 15.0 mph 24.2 mph N/A   Clear
4:53 PM 75.0 °F 48.0 °F 38% 30.05 in 10.0 mi NW 16.1 mph 25.3 mph N/A   Clear
5:53 PM 72.0 °F 50.0 °F 46% 30.06 in 10.0 mi NW 15.0 mph - N/A   Clear
6:53 PM 69.1 °F 51.1 °F 53% 30.08 in 10.0 mi WNW 13.8 mph - N/A   Clear
7:53 PM 66.0 °F 53.1 °F 63% 30.10 in 10.0 mi WNW 10.4 mph - N/A   Clear
8:53 PM 64.9 °F 54.0 °F 68% 30.12 in 10.0 mi NW 6.9 mph - N/A   Clear
9:53 PM 64.9 °F 55.0 °F 70% 30.15 in 10.0 mi NW 5.8 mph - N/A   Clear
10:53 PM 64.0 °F 55.9 °F 75% 30.17 in 10.0 mi NNW 6.9 mph - N/A   Clear
11:53 PM 63.0 °F 54.0 °F 72% 30.19 in 10.0 mi North 9.2 mph - N/A   Clear